Vertical_Velocity
-0 -2 -4 -1 -2 -3 -4 -2 -2 -3 -5 21 -7 -4 -1 2 -2 8 11 3 -1 -3 -9 -12 -49 -28 57 11 8 5 0 12 6 -0 -5 -3 -1 -5 2 1 -2 0 1 1 -1 -4 0 -1 1
-2 -4 0 1 -2 -1 -5 4 8 7 8 21 -0 2 -1 -4 -15 -16 4 5 -4 -2 7 9 14 -71 38 15 2 -4 13 14 -4 1 2 -0 2 -8 -0 -0 0 -0 -1 -3 -3 -4 1 -0 1
-4 -2 4 -4 -2 -1 -4 5 1 6 -11 -2 -2 6 11 1 -2 8 8 -4 -6 -0 1 3 -11 -14 -0 -15 1 9 11 2 -1 4 3 1 1 -0 -7 -1 -5 1 -1 -1 -4 -2 -2 1 1
-5 2 0 -3 5 11 -3 -3 -2 8 -3 -4 3 5 -6 -1 -4 4 0 -6 4 5 -2 -0 11 1 9 8 9 18 13 6 5 5 5 -1 4 -2 6 -1 -6 -1 0 0 -3 -2 -1 -1 -1
-5 0 -4 -6 -5 -10 17 2 9 2 -0 -5 1 -6 -5 -0 4 4 0 -8 13 -3 6 -10 5 12 10 -1 2 11 -8 -0 10 4 -0 7 0 7 -2 -0 5 -6 0 0 -3 -1 -1 -0 1
-4 4 -2 -1 -2 -4 1 14 19 -5 -3 7 3 -3 -5 -2 -3 0 1 -4 -6 0 15 -0 -13 107 39 24 -18 28 23 6 2 0 8 1 -0 6 0 -0 1 -2 3 -2 -2 -2 -4 3 -0
1 2 -4 -5 -3 1 8 4 -8 -6 -5 -3 -2 5 -1 5 6 5 3 -6 -9 32 24 -4 1 -6 5 2 -3 -26 34 2 -3 -4 8 -3 3 4 1 4 1 2 2 3 -1 -2 -6 -5 2
2 1 -5 -6 6 -2 1 6 -6 -9 -6 -3 -8 -2 -3 -2 1 7 -8 3 -30 14 10 -4 2 -0 2 3 5 -11 1 -25 2 -25 -5 4 4 2 -1 -1 -1 1 3 -3 -4 -3 0 -8 1
3 -2 -7 -3 3 4 7 2 -2 -4 -9 -7 -9 1 3 2 -2 -0 8 -5 1 -1 -2 -4 4 5 14 19 -1 -3 0 12 10 4 4 2 -1 -0 5 -2 -1 -0 -3 2 -1 -3 -2 -0 -1
4 -1 -9 4 8 10 4 0 -2 1 -3 -4 -6 -12 -2 -3 1 2 -3 -0 16 19 6 -1 6 4 8 -5 -13 -5 6 -11 -11 -3 3 -2 4 2 4 -2 4 -5 -0 5 -1 -2 -2 -3 2
1 -10 9 -16 17 38 1 5 0 -7 2 -8 -7 1 1 4 -5 -4 -10 -9 -3 4 10 5 4 5 11 13 9 3 -2 -7 -19 1 -23 0 2 -0 0 4 -3 -8 1 -1 1 -3 -0 -0 -2
-3 0 8 -24 34 10 0 -1 2 -0 -10 -5 -9 -5 -2 -6 -2 -6 -4 -4 -3 0 -10 -8 2 3 4 4 9 1 2 -4 -2 1 5 -14 3 6 4 -5 -13 -5 -2 3 -4 -2 -5 2 -1
-2 2 3 16 7 12 2 -2 0 -4 -4 -1 -12 -4 -10 -2 -6 5 -0 -4 1 12 -2 15 9 2 3 3 9 2 -2 2 4 2 2 -8 -7 -2 -22 -15 -7 -3 2 -3 -2 -5 -0 1 1
4 -3 -2 -1 -6 -2 6 4 12 -6 -1 -3 -6 -5 -2 1 -4 -2 -2 0 2 2 -2 -11 -1 7 -1 -4 6 4 -4 1 8 9 2 3 5 0 -24 -9 -2 -2 -1 1 1 -1 -1 -0 0
-1 -12 -11 -7 -7 -0 4 1 -0 -5 -5 -8 -13 -0 -4 -7 -7 -1 -1 -7 -2 3 -3 6 -9 -6 16 -2 15 -1 15 7 5 4 6 -1 -3 -5 -3 -3 -1 -2 -3 -4 -1 -1 1 -0 -1
-2 -5 -4 7 0 10 8 -2 -8 2 1 7 -7 -4 -5 -5 -2 -3 3 1 -6 -2 -2 20 15 -2 -1 -3 -5 7 1 4 0 -6 -1 1 -10 8 -5 -4 1 -3 -3 -3 0 -1 3 -1 -1
-2 -12 2 -16 24 12 10 6 -6 -3 4 -3 0 -6 -3 -8 -2 -1 -3 -1 -1 -5 -4 4 0 9 -2 -1 0 4 7 4 2 -3 1 -3 -6 -2 -6 -1 -1 -5 4 2 2 0 -0 -2 1
-1 -1 3 -4 -14 -3 3 11 -3 -3 -0 4 -6 -4 -3 -10 -2 -2 -5 -4 1 -3 -3 -2 -6 -2 -4 -3 -2 2 9 0 1 1 9 -6 -3 -3 -2 -0 -1 4 -1 -1 -2 1 -4 -3 -0
-0 1 1 -11 13 -4 9 2 -1 2 1 -6 -2 -5 -7 -8 1 -1 -7 -5 -1 -3 -6 -6 -8 -4 -2 -8 -10 -2 -3 -5 -2 -1 -3 1 0 -0 -3 3 -2 1 1 1 0 -2 -0 -0 -1
6 -1 -13 7 -4 22 -6 -9 12 -8 -7 4 0 -3 -1 -6 1 -1 -5 -5 -3 0 -3 -4 -4 -3 -5 -2 -6 -0 2 4 -0 -4 -3 -6 -12 -4 1 -9 -1 1 4 2 -4 -0 -1 -4 1
-1 -3 -6 8 6 7 5 -1 -5 5 -5 -1 3 9 -5 -7 -0 -1 -4 -1 -2 -0 -1 -2 0 -2 -4 -4 -6 -7 -6 -2 -7 -2 -7 -14 -12 -1 -0 0 1 0 -2 -1 -2 3 1 7 1
1 1 12 -3 13 -5 9 -8 -9 -2 1 -7 3 -1 -2 -6 2 -7 -4 -3 -1 -2 -1 -3 -1 -6 -5 -4 -5 -1 1 4 3 1 3 2 2 0 0 1 2 1 3 -3 2 2 4 2 2
-28 2 7 2 3 4 1 8 -8 1 -1 -9 -12 -5 -5 1 -4 -6 -5 -2 3 -4 0 0 -2 -2 1 4 2 2 -1 1 -0 -3 -1 -3 3 -5 -1 3 2 -4 -1 6 -0 1 8 5 -1
-2 16 6 -0 6 3 -3 11 -12 -6 -13 -5 14 -1 1 8 -6 2 3 1 1 -0 -2 -0 -1 -0 -3 1 -1 -1 1 1 -2 0 -0 -2 0 -3 0 -1 1 5 -3 -1 5 8 2 7 0
16 14 -2 -3 1 -8 -5 4 -14 -3 0 -2 -2 -11 -7 -4 -4 3 -1 -2 -4 -4 -0 -2 -2 -3 -4 -5 -3 -1 0 -2 -3 -3 1 1 1 -0 -3 1 -0 0 11 8 12 6 4 2 -3
1 0 -7 -4 -3 -6 4 -4 -23 6 11 -11 14 -1 9 -1 -5 1 1 6 5 5 1 -1 0 0 -3 -2 2 1 4 2 3 3 1 2 -1 2 14 7 3 6 3 2 -13 -8 1 7 3
-11 11 -12 8 5 1 -2 -11 -10 -7 -4 2 6 -4 -3 -2 -7 -1 -3 1 0 7 6 1 -1 3 -2 0 -1 -6 -1 -7 4 7 6 2 11 5 11 5 4 5 4 4 -2 6 2 0 2
9 -1 3 7 -1 -0 -1 -3 -25 -10 -5 10 -1 -6 -4 -1 0 -1 -0 4 2 0 7 11 4 -0 3 4 3 2 10 6 9 7 -19 8 9 8 1 5 -1 21 -32 6 6 3 5 2 0
11 12 11 4 4 -5 -1 -16 -14 -10 -3 -3 -0 -4 3 -1 -6 -7 -4 8 9 10 2 4 8 2 6 9 11 17 11 9 8 10 1 4 14 4 0 1 9 2 11 -3 2 2 -1 -0 -1
17 -5 1 7 -3 1 1 -29 4 -9 -13 -2 -5 -1 -4 3 -8 -3 -9 2 1 2 -4 -7 2 5 5 32 13 17 16 13 1 -2 -11 -8 79 23 -1 2 5 3 -1 -3 -3 0 0 -1 3
Height
3139 3139 3139 3139 3144 3140 3138 3136 3135 3134 3134 3132 3130 3130 3129 3128 3128 3131 3126 3128 3128 3130 3133 3134 3123 3123 3135 3144 3146 3148 3150 3150 3149 3151 3154 3156 3157 3160 3162 3164 3165 3167 3167 3168 3168 3170 3171 3172 3174
3139 3138 3138 3139 3141 3138 3135 3135 3136 3134 3133 3132 3129 3127 3126 3124 3127 3129 3128 3126 3127 3128 3129 3132 3123 3130 3132 3143 3145 3147 3147 3147 3148 3149 3154 3155 3158 3160 3162 3164 3165 3167 3168 3169 3170 3171 3173 3174 3176
3138 3137 3139 3139 3137 3135 3134 3135 3134 3132 3130 3130 3131 3128 3125 3123 3123 3123 3122 3122 3123 3123 3123 3125 3118 3117 3127 3139 3143 3146 3145 3146 3148 3150 3153 3156 3159 3160 3163 3165 3166 3168 3170 3171 3172 3173 3174 3175 3177
3138 3138 3140 3138 3136 3136 3135 3135 3135 3133 3130 3128 3126 3128 3126 3123 3120 3119 3118 3119 3121 3122 3121 3122 3121 3120 3126 3132 3138 3137 3143 3145 3146 3149 3152 3156 3159 3161 3163 3164 3166 3170 3171 3172 3173 3173 3174 3176 3176
3138 3137 3138 3138 3135 3134 3134 3133 3132 3129 3127 3125 3124 3123 3124 3122 3119 3117 3116 3116 3117 3120 3119 3120 3122 3121 3123 3130 3133 3122 3141 3143 3146 3148 3151 3154 3159 3161 3163 3164 3166 3170 3172 3172 3173 3174 3175 3177 3178
3136 3135 3138 3135 3133 3132 3133 3133 3131 3127 3125 3122 3121 3120 3122 3120 3117 3117 3113 3113 3116 3119 3118 3120 3121 3108 3117 3126 3127 3120 3136 3138 3143 3148 3151 3154 3158 3161 3162 3165 3167 3169 3172 3173 3174 3175 3175 3178 3179
3135 3135 3135 3133 3131 3131 3132 3130 3128 3126 3123 3119 3119 3117 3117 3117 3115 3114 3112 3108 3107 3105 3112 3117 3122 3123 3123 3124 3122 3120 3132 3136 3142 3146 3151 3154 3157 3160 3162 3164 3166 3169 3172 3173 3175 3175 3174 3176 3179
3134 3134 3133 3132 3131 3130 3130 3127 3125 3124 3121 3117 3117 3116 3116 3115 3112 3111 3111 3110 3108 3109 3112 3116 3118 3121 3122 3121 3120 3125 3129 3134 3141 3144 3150 3153 3156 3159 3162 3163 3166 3169 3171 3173 3174 3176 3175 3175 3177
3133 3134 3132 3131 3132 3131 3128 3125 3123 3121 3119 3117 3116 3115 3112 3111 3110 3110 3109 3110 3108 3110 3113 3114 3117 3118 3119 3119 3121 3122 3127 3133 3138 3143 3147 3151 3155 3158 3161 3164 3166 3169 3170 3173 3175 3177 3177 3176 3177
3132 3132 3131 3129 3129 3129 3125 3123 3121 3118 3116 3114 3112 3112 3111 3110 3110 3111 3108 3107 3106 3106 3109 3112 3112 3114 3115 3112 3119 3123 3129 3132 3138 3142 3146 3151 3154 3157 3159 3161 3165 3167 3170 3173 3175 3177 3177 3177 3178
3129 3128 3129 3125 3127 3128 3125 3121 3118 3116 3115 3112 3109 3108 3106 3106 3107 3108 3108 3107 3105 3105 3106 3107 3110 3111 3112 3116 3118 3122 3126 3131 3137 3139 3143 3148 3152 3156 3158 3161 3165 3168 3169 3172 3174 3176 3177 3178 3178
3127 3126 3126 3124 3125 3124 3122 3120 3117 3115 3112 3108 3107 3106 3102 3102 3103 3104 3103 3103 3102 3102 3101 3102 3105 3109 3112 3114 3116 3119 3121 3126 3132 3135 3140 3144 3150 3153 3156 3160 3166 3169 3170 3171 3174 3175 3176 3178 3177
3123 3122 3121 3121 3121 3121 3119 3116 3114 3110 3108 3103 3103 3103 3101 3099 3101 3101 3101 3101 3099 3099 3100 3101 3104 3107 3110 3112 3113 3114 3119 3125 3130 3133 3137 3143 3147 3148 3153 3162 3166 3168 3169 3172 3173 3175 3176 3176 3176
3119 3118 3117 3116 3117 3117 3116 3114 3112 3109 3106 3102 3102 3103 3102 3100 3100 3101 3100 3097 3093 3094 3097 3100 3100 3104 3107 3110 3112 3115 3119 3121 3127 3132 3135 3140 3145 3148 3156 3161 3164 3166 3169 3170 3171 3172 3174 3174 3174
3116 3116 3113 3113 3114 3114 3113 3110 3110 3109 3104 3101 3102 3103 3102 3101 3101 3100 3099 3095 3090 3091 3093 3095 3098 3101 3103 3107 3110 3112 3113 3119 3122 3128 3132 3137 3142 3150 3156 3160 3163 3164 3167 3169 3170 3171 3172 3173 3173
3114 3115 3111 3110 3112 3111 3110 3107 3107 3107 3105 3103 3102 3101 3102 3100 3100 3100 3099 3097 3093 3089 3090 3091 3094 3098 3102 3104 3108 3108 3111 3114 3118 3124 3132 3137 3144 3151 3154 3158 3160 3163 3165 3166 3168 3168 3170 3172 3173
3110 3109 3110 3107 3106 3105 3104 3104 3105 3106 3103 3103 3103 3101 3100 3100 3099 3099 3099 3097 3096 3093 3088 3088 3092 3095 3098 3100 3103 3105 3108 3113 3117 3124 3128 3136 3144 3149 3153 3156 3158 3160 3162 3163 3164 3166 3167 3169 3170
3106 3107 3107 3106 3105 3101 3101 3102 3102 3103 3100 3100 3101 3100 3101 3099 3099 3100 3100 3098 3097 3096 3092 3089 3091 3093 3097 3098 3099 3104 3109 3113 3119 3123 3128 3135 3142 3147 3150 3152 3155 3157 3159 3160 3161 3163 3164 3165 3166
3105 3105 3103 3102 3103 3101 3100 3100 3099 3100 3099 3097 3097 3099 3100 3099 3099 3100 3100 3098 3097 3098 3097 3094 3093 3093 3096 3096 3099 3103 3107 3111 3116 3121 3128 3132 3137 3142 3147 3150 3153 3154 3156 3157 3159 3159 3160 3161 3161
3101 3101 3100 3101 3102 3101 3098 3097 3097 3097 3098 3097 3097 3097 3097 3097 3098 3099 3098 3098 3097 3098 3098 3097 3098 3099 3098 3097 3099 3104 3108 3112 3116 3121 3126 3130 3134 3142 3145 3148 3149 3151 3152 3154 3155 3156 3156 3157 3157
3096 3098 3097 3098 3097 3098 3096 3092 3093 3092 3093 3093 3092 3094 3095 3094 3097 3098 3097 3097 3097 3098 3099 3100 3099 3099 3100 3100 3101 3104 3108 3111 3114 3119 3122 3125 3133 3138 3140 3142 3145 3147 3149 3150 3151 3152 3152 3153 3152
3091 3094 3095 3094 3093 3093 3093 3090 3088 3087 3087 3088 3089 3089 3091 3091 3094 3095 3096 3096 3098 3098 3099 3098 3098 3099 3100 3101 3102 3105 3109 3112 3116 3119 3123 3127 3131 3134 3137 3139 3141 3143 3144 3145 3146 3147 3147 3148 3148
3087 3090 3092 3091 3089 3087 3088 3087 3084 3085 3084 3083 3084 3086 3087 3089 3091 3093 3094 3096 3097 3097 3099 3100 3100 3101 3102 3104 3105 3108 3111 3114 3116 3119 3122 3126 3128 3130 3133 3134 3136 3137 3139 3140 3141 3141 3142 3143 3143
3085 3087 3087 3087 3085 3082 3081 3083 3077 3080 3080 3079 3081 3081 3084 3086 3089 3090 3093 3094 3094 3096 3097 3100 3102 3103 3103 3105 3106 3108 3110 3112 3114 3116 3120 3123 3126 3128 3130 3130 3131 3132 3133 3135 3136 3136 3136 3136 3135
3080 3083 3083 3085 3084 3078 3078 3077 3072 3074 3075 3073 3074 3077 3080 3083 3084 3086 3089 3089 3090 3091 3094 3097 3099 3100 3101 3103 3105 3107 3109 3111 3113 3116 3118 3119 3121 3123 3126 3127 3127 3127 3128 3129 3129 3129 3130 3129 3128
3073 3076 3077 3080 3083 3076 3075 3069 3068 3068 3067 3065 3069 3071 3074 3076 3079 3082 3085 3086 3088 3090 3092 3093 3095 3097 3098 3099 3102 3104 3106 3108 3111 3112 3113 3115 3116 3119 3121 3122 3123 3122 3117 3121 3120 3122 3121 3121 3121
3069 3067 3072 3072 3073 3074 3071 3068 3065 3065 3063 3063 3065 3066 3068 3071 3074 3078 3081 3083 3085 3086 3088 3090 3091 3093 3094 3096 3098 3100 3102 3103 3105 3108 3108 3108 3110 3112 3113 3115 3116 3115 3114 3109 3113 3116 3115 3114 3114
3060 3066 3065 3065 3069 3071 3064 3065 3063 3063 3061 3061 3062 3064 3065 3067 3070 3073 3075 3078 3081 3083 3085 3087 3088 3088 3089 3091 3093 3094 3097 3099 3101 3101 3103 3103 3104 3105 3107 3108 3108 3109 3110 3109 3109 3109 3108 3107 3105
3055 3056 3057 3059 3060 3061 3064 3060 3060 3060 3059 3059 3061 3063 3064 3065 3066 3068 3069 3072 3075 3079 3080 3081 3082 3082 3081 3084 3086 3089 3091 3093 3093 3095 3093 3092 3093 3097 3099 3101 3103 3103 3104 3103 3104 3103 3101 3099 3097
3049 3050 3052 3052 3056 3054 3054 3052 3057 3057 3058 3058 3059 3060 3062 3062 3063 3064 3066 3067 3068 3071 3073 3073 3074 3076 3078 3077 3076 3078 3082 3083 3084 3086 3086 3076 3060 3088 3092 3095 3097 3097 3097 3096 3096 3094 3092 3090 3088